When you browse on this site, cookies collect data to enhance your experience and personalize the content and advertising you see.
Visit our Privacy Policy to learn more. By continuing to use the site, you agree to this use of cookies and data.
  • In Romania
  • List of Countries
  • For 7 days
  • Water Temperature
  • Weather Map
  • Weather Widgets
  • user-avatar
    Login

    Hourly Weather Pruszków

    Today, 22 August, Thursday

    Time Temperature Precipitation Wind Pressure Humidity
    00:00 +15°C° 0 mm 1 mps 763 mmHg 87%
    01:00 +15°C° 0 mm 1 mps 763 mmHg 89%
    02:00 +15°C° 0 mm 1 mps 763 mmHg 89%
    03:00 +14°C° 0 mm 1 mps 763 mmHg 90%
    04:00 +14°C° 0 mm 1 mps 763 mmHg 91%
    05:00 +15°C° 0 mm 1 mps 763 mmHg 86%
    06:00 +16°C° 0 mm 1 mps 763 mmHg 82%
    07:00 +17°C° 0 mm 2 mps 764 mmHg 77%
    08:00 +19°C° 0 mm 2 mps 764 mmHg 69%
    09:00 +20°C° 0 mm 2 mps 764 mmHg 60%
    10:00 +21°C° 0 mm 2 mps 764 mmHg 51%
    11:00 +22°C° 0 mm 3 mps 763 mmHg 48%
    12:00 +24°C° 0 mm 3 mps 763 mmHg 46%
    13:00 +25°C° 0 mm 3 mps 763 mmHg 43%
    14:00 +24°C° 0 mm 3 mps 763 mmHg 44%
    15:00 +24°C° 0 mm 3 mps 762 mmHg 45%
    16:00 +24°C° 0 mm 3 mps 762 mmHg 46%
    17:00 +22°C° 0 mm 3 mps 762 mmHg 51%
    18:00 +20°C° 0 mm 3 mps 762 mmHg 56%
    19:00 +19°C° 0 mm 2 mps 762 mmHg 61%
    20:00 +18°C° 0 mm 2 mps 762 mmHg 63%
    21:00 +17°C° 0 mm 2 mps 762 mmHg 65%
    22:00 +17°C° 0 mm 2 mps 763 mmHg 67%
    23:00 +16°C° 0 mm 2 mps 763 mmHg 68%

    Tomorrow, 23 August, Friday

    Time Temperature Precipitation Wind Pressure Humidity
    00:00 +16°C° 0 mm 2 mps 763 mmHg 69%
    01:00 +16°C° 0 mm 2 mps 763 mmHg 71%
    02:00 +15°C° 0 mm 2 mps 763 mmHg 72%
    03:00 +15°C° 0 mm 2 mps 762 mmHg 73%
    04:00 +15°C° 0 mm 2 mps 762 mmHg 75%
    05:00 +16°C° 0 mm 2 mps 762 mmHg 72%
    06:00 +17°C° 0 mm 2 mps 763 mmHg 69%
    07:00 +18°C° 0 mm 2 mps 763 mmHg 66%
    08:00 +20°C° 0 mm 3 mps 763 mmHg 60%
    09:00 +22°C° 0 mm 3 mps 763 mmHg 54%
    10:00 +24°C° 0 mm 3 mps 763 mmHg 47%
    11:00 +25°C° 0 mm 3 mps 762 mmHg 45%
    12:00 +26°C° 0 mm 3 mps 762 mmHg 42%
    13:00 +27°C° 0 mm 4 mps 762 mmHg 39%
    14:00 +27°C° 0 mm 4 mps 761 mmHg 40%
    15:00 +27°C° 0 mm 4 mps 761 mmHg 41%
    16:00 +27°C° 0 mm 4 mps 761 mmHg 42%
    17:00 +25°C° 0 mm 3 mps 761 mmHg 48%
    18:00 +22°C° 0 mm 3 mps 761 mmHg 53%
    19:00 +21°C° 0 mm 3 mps 761 mmHg 59%
    20:00 +20°C° 0 mm 3 mps 761 mmHg 62%
    21:00 +19°C° 0 mm 3 mps 761 mmHg 65%
    22:00 +18°C° 0 mm 3 mps 761 mmHg 68%
    23:00 +18°C° 0 mm 3 mps 761 mmHg 69%

    Day after tomorrow, 24 August, Saturday

    Time Temperature Precipitation Wind Pressure Humidity
    00:00 +17°C° 0 mm 3 mps 761 mmHg 71%
    01:00 +17°C° 0 mm 2 mps 761 mmHg 72%
    02:00 +17°C° 0 mm 3 mps 760 mmHg 73%
    03:00 +16°C° 0 mm 3 mps 760 mmHg 74%
    04:00 +16°C° 0 mm 3 mps 760 mmHg 74%
    05:00 +17°C° 0 mm 3 mps 760 mmHg 71%
    06:00 +18°C° 0 mm 3 mps 760 mmHg 68%
    07:00 +19°C° 0 mm 3 mps 760 mmHg 64%
    08:00 +21°C° 0 mm 4 mps 760 mmHg 60%
    09:00 +22°C° 0 mm 4 mps 760 mmHg 55%
    10:00 +25°C° 0 mm 4 mps 760 mmHg 50%
    11:00 +26°C° 0 mm 4 mps 759 mmHg 48%
    12:00 +27°C° 0 mm 4 mps 759 mmHg 46%
    13:00 +28°C° 0 mm 4 mps 759 mmHg 43%
    14:00 +28°C° 0 mm 4 mps 759 mmHg 44%
    15:00 +28°C° 0 mm 4 mps 758 mmHg 45%
    16:00 +27°C° 0 mm 4 mps 758 mmHg 46%
    17:00 +26°C° 0 mm 4 mps 758 mmHg 52%
    18:00 +23°C° 0 mm 4 mps 758 mmHg 57%
    19:00 +22°C° 0 mm 3 mps 758 mmHg 62%
    20:00 +21°C° 0 mm 3 mps 758 mmHg 64%
    21:00 +20°C° 0 mm 3 mps 758 mmHg 65%
    22:00 +20°C° 0 mm 3 mps 758 mmHg 67%
    23:00 +19°C° 0 mm 3 mps 758 mmHg 67%

    25 August, Sunday

    Time Temperature Precipitation Wind Pressure Humidity
    00:00 +19°C° 0 mm 3 mps 758 mmHg 68%
    01:00 +18°C° 0 mm 3 mps 758 mmHg 68%
    02:00 +18°C° 0 mm 3 mps 758 mmHg 69%
    03:00 +18°C° 0 mm 3 mps 758 mmHg 70%
    04:00 +17°C° 0 mm 3 mps 758 mmHg 70%
    05:00 +18°C° 0 mm 3 mps 758 mmHg 68%
    06:00 +19°C° 0 mm 4 mps 758 mmHg 66%
    07:00 +20°C° 0 mm 4 mps 758 mmHg 64%
    08:00 +21°C° 0 mm 4 mps 758 mmHg 60%
    09:00 +23°C° 0 mm 4 mps 758 mmHg 55%
    10:00 +26°C° 0 mm 5 mps 758 mmHg 51%
    11:00 +27°C° 0 mm 5 mps 758 mmHg 49%
    12:00 +28°C° 0 mm 5 mps 758 mmHg 46%
    13:00 +29°C° 0 mm 5 mps 758 mmHg 44%
    14:00 +29°C° 0 mm 5 mps 758 mmHg 45%
    15:00 +28°C° 0 mm 5 mps 757 mmHg 45%
    16:00 +28°C° 0 mm 5 mps 757 mmHg 46%
    17:00 +27°C° 0 mm 4 mps 757 mmHg 50%
    18:00 +25°C° 0 mm 4 mps 758 mmHg 55%
    19:00 +23°C° 0 mm 4 mps 758 mmHg 60%
    20:00 +22°C° 0 mm 4 mps 758 mmHg 61%
    21:00 +21°C° 0 mm 4 mps 758 mmHg 62%
    22:00 +21°C° 0 mm 4 mps 758 mmHg 64%
    23:00 +20°C° 0 mm 4 mps 758 mmHg 65%

    26 August, Monday

    Time Temperature Precipitation Wind Pressure Humidity
    00:00 +20°C° 0 mm 4 mps 758 mmHg 66%
    01:00 +19°C° 0 mm 4 mps 758 mmHg 68%
    02:00 +19°C° 0 mm 3 mps 758 mmHg 69%
    03:00 +18°C° 0 mm 3 mps 758 mmHg 69%
    04:00 +18°C° 0 mm 3 mps 758 mmHg 70%
    05:00 +19°C° 0 mm 3 mps 758 mmHg 70%
    06:00 +20°C° 0 mm 4 mps 758 mmHg 70%
    07:00 +21°C° 0 mm 4 mps 758 mmHg 69%
    08:00 +23°C° 0 mm 4 mps 758 mmHg 64%
    09:00 +25°C° 0 mm 5 mps 758 mmHg 59%
    10:00 +27°C° 0 mm 5 mps 758 mmHg 54%
    11:00 +28°C° 0 mm 5 mps 758 mmHg 51%
    12:00 +29°C° 0 mm 5 mps 758 mmHg 48%
    13:00 +30°C° 0 mm 5 mps 758 mmHg 45%
    14:00 +30°C° 0 mm 5 mps 758 mmHg 46%
    15:00 +30°C° 0 mm 5 mps 758 mmHg 46%
    16:00 +30°C° 0 mm 4 mps 757 mmHg 47%
    17:00 +28°C° 0 mm 4 mps 757 mmHg 52%
    18:00 +26°C° 0 mm 4 mps 757 mmHg 58%
    19:00 +25°C° 0 mm 3 mps 757 mmHg 63%
    20:00 +24°C° 0 mm 3 mps 757 mmHg 65%
    21:00 +22°C° 0 mm 3 mps 758 mmHg 68%
    22:00 +22°C° 0 mm 3 mps 758 mmHg 70%
    23:00 +21°C° 0 mm 3 mps 757 mmHg 72%

    27 August, Tuesday

    Time Temperature Precipitation Wind Pressure Humidity
    00:00 +21°C° 0 mm 3 mps 757 mmHg 74%
    01:00 +20°C° 0 mm 3 mps 757 mmHg 76%
    02:00 +20°C° 0 mm 3 mps 757 mmHg 76%
    03:00 +19°C° 0 mm 3 mps 757 mmHg 77%
    04:00 +19°C° 0 mm 3 mps 757 mmHg 78%
    05:00 +20°C° 0 mm 3 mps 757 mmHg 75%
    06:00 +21°C° 0 mm 3 mps 757 mmHg 71%
    07:00 +21°C° 0 mm 3 mps 757 mmHg 68%
    08:00 +24°C° 0 mm 3 mps 757 mmHg 62%
    09:00 +26°C° 0 mm 3 mps 757 mmHg 56%
    10:00 +28°C° 0 mm 3 mps 757 mmHg 50%
    11:00 +29°C° 0 mm 3 mps 757 mmHg 46%
    12:00 +30°C° 0 mm 3 mps 757 mmHg 43%
    13:00 +31°C° 0 mm 3 mps 756 mmHg 40%
    14:00 +31°C° 0 mm 3 mps 756 mmHg 41%
    15:00 +31°C° 0 mm 3 mps 756 mmHg 42%
    16:00 +31°C° 0 mm 3 mps 756 mmHg 43%
    17:00 +30°C° 0 mm 3 mps 755 mmHg 48%
    18:00 +28°C° 0 mm 3 mps 755 mmHg 54%
    19:00 +26°C° 0 mm 3 mps 755 mmHg 59%
    20:00 +25°C° 0.1 mm 3 mps 755 mmHg 64%
    21:00 +25°C° 0.1 mm 3 mps 755 mmHg 68%
    22:00 +24°C° 0.1 mm 3 mps 755 mmHg 73%
    23:00 +22°C° 0 mm 3 mps 755 mmHg 75%
    Show more